Location: Unnamed
(48.2382°N, 16.3826°E)
Time: 11:26:20
(UTC+02:00)

Falcon 9 debris - Pass Details

Date: 20 August 2020
Orbit: 426 x 434 km, 53.0° (Epoch: 23 September)

Event Time Altitude Azimuth Distance (km) Brightness Sun altitude
Rises 22:54:23 0° 295° (WNW) 2,413 ? -23.8°
Reaches altitude 10° 22:56:32 10° 290° (WNW) 1,543 ? -24.0°
Enters shadow 22:58:27 29° 276° (W) 833 ? -24.2°
